STARLINK-11475, 62226

Orbit data source: Space-Track

STARLINK-11475, 62226 is a payload satellite owned by SpaceX/Seattle (US) in LEO that was launched on Thu, 05 Dec 2024 UTC via an FALCON 9 launch vehicle from the Air Force Western Test Range (AFWTR). Payload-class satellites include a variety of spacecraft equipped with specific instruments for various scientific and technological missions. These include communications satellites like Starlink; space stations such as the ISS; scientific satellites like the Hubble; Earth observation satellites from companies like Planet Labs, Umbra, and HawkEye 360; GPS; miniature CubeSats for education and research; and military/defense satellites.

Loading next visibility...
Identifier
62226, 2024-231J
Orbit
LEO
Last TLE update
17 hours ago
Origin
Manufacturer
SpaceX/Seattle
Mission
Operational Commercial Communications
Bus & Motor
STARLINK V2M, Unknown motor
Mass
730 kg wet, ~700 kg dry
Launch date (UTC)
2024-12-05 (7 months ago)
Launch vehicle
FALCON 9
Launch site
Air Force Western Test Range (AFWTR)
Object type
Payload
Rocket body
Debris
Shape & HBR
Box + 2 Pan, 29 m
Radar Cross Section
36.964 m², Large (>1 m²)

Expand to show TLE details & history

TLE from 17 hours ago
0 STARLINK-11475
1 62226U 24231J   25181.68638906  .00111842  00000-0  91422-3 0  9991
2 62226  53.1571 263.3940 0001145  81.6548 278.4600 15.69746597 33835
Epoch: 2025-06-30T16:28Z
TLE epoch observation values (Epoch: 2025-06-30T16:28:24.014Z)
Latitude
-0.00001°
Longitude
97.3013°
Altitude
360.423 km
Speed
7.694 km/s
True Right ascension
17h 33m 34s
True Declination
0° 00' 00"
Sunlit
Object was in full shadow at epoch
Visualization orbit readout
Latitude
39.77334°
Longitude
132.12996°
Altitude
362.05 km
Speed
7.698 km/s
Apparent Right ascension
15h 09m 41s
Apparent Declination
7° 25' 60"
Sunlit
Object is in full shadow
Visualization observer readout
Local Sidereal Time
21:08:34
Azimuth
275.538° WNW
Elevation
4.973°
Doppler factor
1
Orbital elements
Apogee altitude
360.655 km
Perigee altitude
359.112 km
Semi-major axis
6,738.02 km
Eccentricity
0.00011
Inclination
53.1571°
RAAN
263.394°
Arg. of periapsis
81.6548°
True anomaly
Unknown
Mean anomaly
278.46°
Eccentric anomaly
Unknown
Mean motion
3.92414 °/min
Orbital period
91.74 mins
BSTAR
0.00091422
Loading maneuver chart data...
Loading SW <> Apogee altitude chart data...
Loading historical data...
Loading historical data...
Loading historical data...
Loading historical data...
Loading historical data...
Loading historical data...
Loading historical data...

STARLINK-11475 Visibility forecast

Observer location: undefined°, undefined°

Span
Click to sort rows by Start time (UTC) header in descending order
Start Az.
Max El. time (UTC)
Max El. Az.
Max El.
End time (UTC)
End Az.
4 mins2025-07-01 14:21:16.840Z344.925° N2025-07-01 14:22:16.840Z18.964° NNE28.3°2025-07-01 14:25:16.840Z101.265° ESE
4 mins2025-07-02 08:25:16.840Z270.797° WNW2025-07-02 08:26:16.840Z304.717° NW30.482°2025-07-02 08:29:16.840Z35.263° NE
|